Location: Asheville, NC
(35.6000°N, 82.5500°W)
Time: 12:00:24

ZACube-1 - Pass Details

Date: 16 March 2018
Orbit: 584 x 669 km, 97.6° (Epoch: 23 March)

Event Time Altitude Azimuth Distance (km) Brightness Sun altitude
Rises 20:29:13 0° 159° (SSE) 2,883 ? -11.1°
Reaches altitude 10° 20:31:26 10° 156° (SSE) 1,968 ? -11.5°
Maximum altitude 20:35:39 63° 76° (ENE) 678 ? -12.4°
Drops below altitude 10° 20:39:48 10° 355° (N) 1,936 ? -13.2°
Sets 20:41:58 0° 353° (N) 2,832 ? -13.7°
